Miscellaneous Local Product
Issued by NWS Hastings, NE

Home | Current Version | Previous Version | Text Only | Print | Product List | Glossary Off
Versions: 1 2 3 4 5 6 7 8 9 10 11 12 13 14 15 16 17 18 19 20 21 22 23 24 25 26 27 28 29 30 31 32 33 34 35 36 37 38 39 40 41 42 43 44 45 46 47 48 49 50

000
AXUS43 KGID 280702
MISGRI

GID CWA HOURLY WEATHER ROUNDUP
NATIONAL WEATHER SERVICE HASTINGS NE
200 AM CDT THU JUL 28 2016

NOTE: "FAIR" INDICATES FEW OR NO CLOUDS BELOW 12,000 FEET WITH NO
SIGNIFICANT WEATHER AND/OR OBSTRUCTIONS TO VISIBILITY.

...SOUTH CENTRAL NEBRASKA...

CITY           SKY/WX    TMP DP  RH WIND       PRES   REMARKS
GRAND ISLAND   PTCLDY    67  61  81 CALM      30.04F
HASTINGS       CLEAR     67  64  90 N5        30.07R
KEARNEY        CLEAR     66   9  10 N3        30.08R
ORD            CLEAR     61  58  90 W3        30.06S
YORK           PTCLDY    66  64  94 CALM      30.04S
AURORA         MOCLDY    66  64  92 N3        30.03F
LEXINGTON      PTCLDY    66  61  84 NE6       30.10R
HOLDREGE       CLEAR     67  64  92 CALM      30.09R
HEBRON         CLEAR     71  66  85 CALM      30.02S

...NEBRASKA PANHANDLE...

CITY           SKY/WX    TMP DP  RH WIND       PRES   REMARKS
CHADRON        PTCLDY    68  59  73 NE7       30.12S
ALLIANCE       CLOUDY    61  55  81 SE8       30.15S
SCOTTSBLUFF    CLOUDY    65  61  87 SE8       30.16R
SIDNEY         CLOUDY    63  59  87 S13       30.19F

...WESTERN AND NORTH CENTRAL NEBRASKA...

CITY           SKY/WX    TMP DP  RH WIND       PRES   REMARKS
VALENTINE      CLEAR     59  56  89 MISG      30.12S
AINSWORTH      CLEAR     59  58  98 N3        30.12S
ONEILL         CLOUDY    64  61  92 NW6       30.09R
BROKEN BOW     CLEAR     61  60  97 CALM      30.08F
IMPERIAL       CLOUDY    69  65  86 N7        30.16R
NORTH PLATTE   PTCLDY    64  60  87 CALM      30.12R
MCCOOK         PTCLDY    69  67  93 CALM      30.11R

...EASTERN NEBRASKA...

CITY           SKY/WX    TMP DP  RH WIND       PRES   REMARKS
NORFOLK        CLOUDY    67  64  90 N3        30.03F
SO SIOUX CITY  CLOUDY    74  63  68 NE7       30.01S
TEKAMAH        CLOUDY    72  68  87 N8        29.99S
COLUMBUS       CLOUDY    68  57  68 NW6       30.03S
ALBION         CLOUDY    65  61  85 N3        30.05S
OMAHA EPPLEY   CLOUDY    72  68  87 NW6       29.97S
OFFUTT AFB     CLOUDY    71  70  96 NW3       29.97S
MILLARD        MOCLDY    73  67  81 NW6       29.98S
LINCOLN        PTCLDY    71  65  81 N12       30.01S
NEBRASKA CITY  CLEAR     72  72 100 CALM      29.97F
BEATRICE       CLEAR     68  66  93 CALM      30.00S
FALLS CITY     CLEAR     72  70  93 NW3       29.95F

...NORTHERN KANSAS...

CITY           SKY/WX    TMP DP  RH WIND       PRES   REMARKS
GOODLAND       CLOUDY    60  56  86 E6        30.15R
HILL CITY      LGT RAIN  74  71  91 CALM      30.08R FOG
NORTON         PTSUNNY   72  64  78 NE5       30.08S
SMITH CENTER   CLEAR     72  66  83 NE8       30.05S
BELOIT         PTCLDY    72  68  88 CALM      30.01S
HAYS           CLOUDY    73  64  73 SE3       30.03F
RUSSELL        CLOUDY    75  69  81 CALM      30.03R
CONCORDIA      PTCLDY    72  67  84 NE3       30.02R
SALINA         CLEAR     77  69  76 NW7       30.00R
TOPEKA         CLEAR     75  70  84 CALM      29.95F



USA.gov is the U.S. government's official web portal to all federal, state and local government web resources and services.